When you browse on this site, cookies collect data to enhance your experience and personalize the content and advertising you see.
Visit our Privacy Policy to learn more. By continuing to use the site, you agree to this use of cookies and data.
  • In Sweden
  • List of Countries
  • For 7 days
  • Water Temperature
  • Satellite Maps
  • Weather Map
  • Weather Widgets
  • user-avatar
    Login

    Hourly Weather Omagh

    Today, 21 November, Wednesday

    Time Temperature Precipitation Wind Pressure Humidity
    00:00 +5°C° 0.1 mm 5 mps 753 mmHg 79%
    01:00 +5°C° 0.3 mm 5 mps 752 mmHg 81%
    02:00 +5°C° 0.3 mm 5 mps 752 mmHg 82%
    03:00 +5°C° 0.3 mm 5 mps 751 mmHg 84%
    04:00 +5°C° 0.5 mm 5 mps 750 mmHg 85%
    05:00 +5°C° 0.5 mm 5 mps 750 mmHg 86%
    06:00 +5°C° 0.5 mm 5 mps 749 mmHg 87%
    07:00 +3°C° 0.3 mm 5 mps 749 mmHg 88%
    08:00 +3°C° 0.3 mm 5 mps 749 mmHg 88%
    09:00 +4°C° 0.3 mm 4 mps 749 mmHg 88%
    10:00 +3°C° 0.2 mm 5 mps 749 mmHg 85%
    11:00 +5°C° 0.2 mm 5 mps 749 mmHg 83%
    12:00 +4°C° 0.2 mm 6 mps 749 mmHg 80%
    13:00 +5°C° 0.3 mm 5 mps 750 mmHg 81%
    14:00 +5°C° 0.3 mm 5 mps 750 mmHg 82%
    15:00 +3°C° 0.3 mm 5 mps 750 mmHg 83%
    16:00 +3°C° 0.1 mm 5 mps 751 mmHg 85%
    17:00 +4°C° 0.1 mm 4 mps 751 mmHg 87%
    18:00 +3°C° 0.1 mm 4 mps 752 mmHg 88%
    19:00 +3°C° 0 mm 4 mps 753 mmHg 90%
    20:00 +3°C° 0 mm 3 mps 753 mmHg 91%
    21:00 +2°C° 0 mm 3 mps 754 mmHg 92%
    22:00 +2°C° 0 mm 3 mps 754 mmHg 92%
    23:00 +3°C° 0 mm 3 mps 755 mmHg 92%

    Tomorrow, 22 November, Thursday

    Time Temperature Precipitation Wind Pressure Humidity
    00:00 +3°C° 0 mm 3 mps 755 mmHg 92%
    01:00 +3°C° 0 mm 4 mps 755 mmHg 92%
    02:00 +4°C° 0 mm 4 mps 756 mmHg 91%
    03:00 +3°C° 0 mm 5 mps 756 mmHg 91%
    04:00 +4°C° 0 mm 4 mps 756 mmHg 91%
    05:00 +4°C° 0 mm 4 mps 756 mmHg 91%
    06:00 +4°C° 0 mm 4 mps 756 mmHg 91%
    07:00 +3°C° 0 mm 4 mps 757 mmHg 91%
    08:00 +3°C° 0 mm 4 mps 757 mmHg 91%
    09:00 +3°C° 0 mm 3 mps 757 mmHg 91%
    10:00 +4°C° 0 mm 4 mps 757 mmHg 87%
    11:00 +5°C° 0 mm 4 mps 757 mmHg 84%
    12:00 +5°C° 0 mm 4 mps 757 mmHg 80%
    13:00 +5°C° 0 mm 4 mps 757 mmHg 82%
    14:00 +5°C° 0 mm 4 mps 756 mmHg 84%
    15:00 +5°C° 0 mm 4 mps 756 mmHg 86%
    16:00 +5°C° 0 mm 3 mps 756 mmHg 87%
    17:00 +5°C° 0 mm 3 mps 756 mmHg 89%
    18:00 +5°C° 0 mm 3 mps 756 mmHg 90%
    19:00 +4°C° 0.1 mm 3 mps 756 mmHg 91%
    20:00 +4°C° 0.1 mm 3 mps 756 mmHg 92%
    21:00 +5°C° 0.1 mm 2 mps 756 mmHg 93%
    22:00 +5°C° 0.1 mm 2 mps 756 mmHg 93%
    23:00 +5°C° 0.1 mm 2 mps 756 mmHg 94%

    Day after tomorrow, 23 November, Friday

    Time Temperature Precipitation Wind Pressure Humidity
    00:00 +5°C° 0.1 mm 2 mps 755 mmHg 94%
    01:00 +5°C° 0.1 mm 2 mps 755 mmHg 94%
    02:00 +4°C° 0.1 mm 2 mps 755 mmHg 94%
    03:00 +4°C° 0.1 mm 2 mps 755 mmHg 94%
    04:00 +4°C° 0 mm 2 mps 755 mmHg 94%
    05:00 +3°C° 0 mm 2 mps 754 mmHg 94%
    06:00 +3°C° 0 mm 2 mps 754 mmHg 95%
    07:00 +3°C° 0 mm 2 mps 754 mmHg 94%
    08:00 +3°C° 0 mm 2 mps 754 mmHg 94%
    09:00 +3°C° 0 mm 2 mps 754 mmHg 94%
    10:00 +3°C° 0 mm 3 mps 754 mmHg 90%
    11:00 +4°C° 0 mm 3 mps 754 mmHg 87%
    12:00 +5°C° 0 mm 3 mps 754 mmHg 83%
    13:00 +5°C° 0 mm 3 mps 754 mmHg 85%
    14:00 +5°C° 0 mm 3 mps 753 mmHg 86%
    15:00 +5°C° 0 mm 3 mps 753 mmHg 87%
    16:00 +5°C° 0.1 mm 3 mps 753 mmHg 89%
    17:00 +5°C° 0.1 mm 3 mps 753 mmHg 90%
    18:00 +5°C° 0.1 mm 3 mps 753 mmHg 92%
    19:00 +5°C° 0.2 mm 4 mps 753 mmHg 92%
    20:00 +5°C° 0.2 mm 4 mps 753 mmHg 92%
    21:00 +5°C° 0.2 mm 4 mps 753 mmHg 92%
    22:00 +7°C° 0.2 mm 3 mps 753 mmHg 93%
    23:00 +7°C° 0.2 mm 3 mps 753 mmHg 93%

    24 November, Saturday

    Time Temperature Precipitation Wind Pressure Humidity
    00:00 +7°C° 0.2 mm 3 mps 753 mmHg 94%
    01:00 +7°C° 0.1 mm 3 mps 753 mmHg 94%
    02:00 +7°C° 0.1 mm 3 mps 753 mmHg 94%
    03:00 +7°C° 0.1 mm 3 mps 753 mmHg 95%
    04:00 +5°C° 0 mm 3 mps 754 mmHg 95%
    05:00 +5°C° 0 mm 3 mps 754 mmHg 95%
    06:00 +5°C° 0 mm 3 mps 754 mmHg 95%
    07:00 +5°C° 0 mm 3 mps 754 mmHg 95%
    08:00 +6°C° 0 mm 2 mps 755 mmHg 94%
    09:00 +6°C° 0 mm 2 mps 755 mmHg 94%
    10:00 +7°C° 0 mm 2 mps 755 mmHg 92%
    11:00 +7°C° 0 mm 3 mps 756 mmHg 90%
    12:00 +8°C° 0 mm 3 mps 756 mmHg 88%
    13:00 +8°C° 0 mm 3 mps 756 mmHg 88%
    14:00 +7°C° 0 mm 3 mps 755 mmHg 87%
    15:00 +7°C° 0 mm 3 mps 755 mmHg 87%
    16:00 +7°C° 0 mm 3 mps 755 mmHg 88%
    17:00 +6°C° 0 mm 2 mps 755 mmHg 89%
    18:00 +6°C° 0 mm 2 mps 755 mmHg 89%
    19:00 +6°C° 0 mm 2 mps 755 mmHg 89%
    20:00 +6°C° 0 mm 2 mps 755 mmHg 89%
    21:00 +6°C° 0 mm 2 mps 756 mmHg 89%
    22:00 +5°C° 0 mm 2 mps 756 mmHg 90%
    23:00 +5°C° 0 mm 2 mps 756 mmHg 91%

    25 November, Sunday

    Time Temperature Precipitation Wind Pressure Humidity
    00:00 +5°C° 0 mm 2 mps 756 mmHg 92%
    01:00 +5°C° 0 mm 2 mps 755 mmHg 92%
    02:00 +5°C° 0 mm 2 mps 755 mmHg 92%
    03:00 +5°C° 0 mm 2 mps 755 mmHg 92%
    04:00 +5°C° 0 mm 2 mps 755 mmHg 92%
    05:00 +5°C° 0 mm 2 mps 754 mmHg 92%
    06:00 +5°C° 0 mm 2 mps 754 mmHg 92%
    07:00 +5°C° 0 mm 2 mps 754 mmHg 92%
    08:00 +5°C° 0 mm 2 mps 754 mmHg 92%
    09:00 +5°C° 0 mm 2 mps 754 mmHg 93%
    10:00 +5°C° 0.1 mm 3 mps 754 mmHg 90%
    11:00 +5°C° 0.1 mm 3 mps 754 mmHg 88%
    12:00 +7°C° 0.1 mm 3 mps 754 mmHg 86%
    13:00 +7°C° 0 mm 3 mps 754 mmHg 85%
    14:00 +7°C° 0 mm 3 mps 753 mmHg 85%
    15:00 +5°C° 0 mm 3 mps 753 mmHg 84%
    16:00 +5°C° 0 mm 3 mps 753 mmHg 85%
    17:00 +5°C° 0 mm 3 mps 753 mmHg 87%
    18:00 +4°C° 0 mm 3 mps 753 mmHg 88%
    19:00 +4°C° 0.1 mm 3 mps 753 mmHg 89%
    20:00 +4°C° 0.1 mm 3 mps 753 mmHg 90%
    21:00 +4°C° 0.1 mm 3 mps 753 mmHg 91%
    22:00 +4°C° 0.1 mm 4 mps 753 mmHg 90%
    23:00 +3°C° 0.1 mm 4 mps 753 mmHg 89%

    26 November, Monday

    Time Temperature Precipitation Wind Pressure Humidity
    00:00 +3°C° 0.1 mm 4 mps 753 mmHg 88%
    01:00 +3°C° 0 mm 4 mps 753 mmHg 88%
    02:00 +3°C° 0 mm 3 mps 752 mmHg 88%
    03:00 +2°C° 0 mm 3 mps 752 mmHg 89%
    04:00 +2°C° 0 mm 3 mps 752 mmHg 89%
    05:00 +2°C° 0 mm 3 mps 752 mmHg 88%
    06:00 +2°C° 0 mm 3 mps 752 mmHg 88%
    07:00 +2°C° 0 mm 3 mps 752 mmHg 89%
    08:00 +2°C° 0 mm 3 mps 752 mmHg 89%
    09:00 +2°C° 0 mm 3 mps 752 mmHg 89%
    10:00 +3°C° 0.1 mm 3 mps 752 mmHg 87%
    11:00 +4°C° 0.1 mm 4 mps 752 mmHg 84%
    12:00 +5°C° 0.1 mm 4 mps 752 mmHg 82%
    13:00 +4°C° 0.1 mm 4 mps 752 mmHg 82%
    14:00 +4°C° 0.1 mm 4 mps 751 mmHg 82%
    15:00 +4°C° 0.1 mm 4 mps 751 mmHg 82%
    16:00 +4°C° 0.1 mm 4 mps 751 mmHg 85%
    17:00 +4°C° 0.1 mm 4 mps 751 mmHg 87%
    18:00 +4°C° 0.1 mm 3 mps 751 mmHg 89%
    19:00 +4°C° 0.4 mm 4 mps 751 mmHg 89%
    20:00 +4°C° 0.4 mm 4 mps 751 mmHg 89%
    21:00 +3°C° 0.4 mm 5 mps 751 mmHg 88%
    22:00 +4°C° 0.2 mm 4 mps 751 mmHg 87%
    23:00 +4°C° 0.2 mm 4 mps 751 mmHg 86%
    Show more